[[{"header":{"parameterUnit":"m.s-1","parameterCategory":1,"la1":30.2991,"la2":30.254,"lo1":-89.0895,"lo2":-89.0444,"dy":0.0017,"dx":0.0017,"nx":28,"ny":28,"refTime":"2023-10-19T09:00:00:Z","depth":0,"parameterNumber":2,"parameterNumberName":"U-component_of_WINDS"},"data":[0,0,0,0,0,0,0,0,0,0,0,0,0,0,0,0,0,0,0,0,0,0,0,0,0,0,0,0,0,0,0,0,0,0,0,0,0,0,0,0,0,0,0,0,0,0,0,0,0,0,0,0,0,0,0,0,0,0,-0.5255,-0.5256,0,-0.5346,-0.5347,-0.5348,-0.5473,-0.5476,-0.5478,-0.548,-0.5568,-0.5569,-0.5569,0,0,0,0,0,0,0,0,0,0,0,0,0,-0.5187,-0.5187,-0.5255,-0.5256,-0.5257,-0.5346,-0.5347,-0.5348,-0.5473,-0.5476,-0.5478,-0.5481,-0.5568,-0.5569,-0.5569,0,0,0,0,0,0,0,0,0,0,0,0,0,-0.524,-0.5187,-0.5255,-0.5331,-0.5338,-0.5345,-0.5347,-0.5348,-0.5473,-0.5476,-0.5479,-0.5482,-0.5568,-0.5569,-0.5569,-0.5508,0,0,-0.5571,-0.5571,0,0,0,0,0,0,0,0,-0.5237,-0.5243,-0.5318,-0.5325,-0.5334,-0.5402,-0.5355,-0.5402,-0.5472,-0.5421,-0.548,-0.5484,-0.551,-0.5516,-0.5525,-0.5513,-0.5516,-0.5571,-0.5571,-0.5572,-0.5572,0,0,0,0,0,0,0,-0.5233,-0.524,-0.5291,-0.5319,-0.5329,-0.5359,-0.537,-0.5365,-0.5446,-0.5426,-0.5435,-0.5445,-0.5515,-0.5525,-0.5528,-0.5518,-0.5571,-0.5571,-0.5572,-0.5572,-0.5458,-0.5454,0,0,0,0,0,0,-0.5219,-0.5236,-0.5288,-0.5294,-0.5293,-0.5357,-0.537,-0.5377,-0.5447,-0.5461,-0.5442,-0.545,-0.5522,-0.5528,-0.5532,-0.5464,-0.5572,-0.5572,-0.5572,-0.5461,-0.5457,-0.5453,0,0,0,0,0,0,-0.5217,-0.5222,-0.5284,-0.5267,-0.5277,-0.5355,-0.5362,-0.5377,-0.5387,-0.5459,-0.5474,-0.5437,-0.5525,-0.5531,-0.5513,-0.5469,-0.5572,-0.5573,-0.5465,-0.546,-0.5455,-0.5327,0,0,0,0,0,0,-0.5214,-0.5221,-0.5199,-0.5266,-0.5278,-0.5265,-0.5359,-0.5376,-0.5388,-0.5399,-0.5458,-0.5471,-0.5528,-0.5512,-0.5514,-0.5471,-0.5573,-0.5469,-0.5463,-0.5457,-0.5336,-0.5318,-0.5304,0,0,0,0,0,-0.5212,-0.5159,-0.5198,-0.5203,-0.5253,-0.5262,-0.5269,-0.5336,-0.5384,-0.5362,-0.5408,-0.5469,-0.5474,-0.5509,-0.5512,-0.5469,-0.5472,-0.5464,-0.5457,-0.5343,-0.5322,-0.5304,0,0,0,0,0,0,-0.5085,-0.517,-0.5213,-0.5181,-0.5213,-0.5283,-0.5258,-0.5312,-0.5331,-0.5341,-0.5423,-0.5435,-0.5406,-0.5437,-0.5474,-0.5413,-0.5482,-0.5475,-0.5394,-0.5375,-0.5359,-0.5351,-0.5574,0,0,0,0,0,-0.5053,-0.5055,-0.5129,-0.5093,-0.5107,-0.5179,-0.5186,-0.5236,-0.5272,-0.5286,-0.5331,-0.5363,-0.5371,-0.5375,-0.5387,-0.5342,-0.5355,-0.5314,-0.5298,-0.5284,-0.5276,-0.5252,-0.5234,-0.5428,-0.5428,-0.5429,0,0,-0.4988,-0.5034,-0.503,-0.5069,-0.51,-0.5098,-0.519,-0.5185,-0.5183,-0.5285,-0.527,-0.5304,-0.5345,-0.5312,-0.53,-0.5336,-0.5225,-0.5274,-0.5263,-0.5262,-0.5242,-0.5224,-0.5207,-0.5423,-0.5424,-0.5425,0,0,-0.4867,-0.4904,-0.4877,-0.4906,-0.4952,-0.5001,-0.4994,-0.5056,-0.5082,-0.507,-0.5145,-0.5144,-0.5158,-0.5184,-0.5198,-0.5086,-0.5142,-0.5088,-0.5003,-0.4979,-0.4963,-0.495,-0.4908,-0.4892,-0.508,-0.508,-0.508,0,-0.4779,-0.4781,-0.4857,-0.4846,-0.486,-0.4953,-0.4925,-0.495,-0.4996,-0.5003,-0.5044,-0.5062,-0.5096,-0.507,-0.5042,-0.5052,-0.5046,-0.5081,-0.496,-0.4947,-0.4936,-0.4897,-0.4881,-0.5073,-0.5074,-0.5075,-0.5075,0,-0.467,-0.4669,-0.4643,-0.4686,-0.4697,-0.4678,-0.4749,-0.4751,-0.48,-0.4843,-0.4827,-0.4872,-0.4894,-0.4892,-0.4939,-0.4871,-0.4892,-0.4945,-0.5016,-0.4909,-0.4873,-0.4859,-0.5063,-0.5065,-0.5068,-0.5069,0,0,-0.4471,-0.4556,-0.4545,-0.4565,-0.4622,-0.4623,-0.4607,-0.463,-0.4629,-0.4658,-0.4645,-0.4655,-0.4704,-0.472,-0.4771,-0.475,-0.4656,-0.4806,-0.4808,-0.4774,-0.4582,-0.4539,-0.4521,-0.4694,-0.4692,-0.469,-0.4577,0,-0.4359,-0.4339,-0.4406,-0.4367,-0.4366,-0.4455,-0.4441,-0.4473,-0.4513,-0.4518,-0.4562,-0.4566,-0.4632,-0.4642,-0.4626,-0.4671,-0.4618,-0.468,-0.4681,-0.468,-0.4666,-0.4503,-0.4459,-0.435,-0.4564,-0.4562,-0.456,0,-0.4227,-0.4249,-0.421,-0.4268,-0.4271,-0.4257,-0.4282,-0.4286,-0.4324,-0.4355,-0.4373,-0.4432,-0.4419,-0.4489,-0.4471,-0.4512,-0.4517,-0.4539,-0.4536,-0.4537,-0.4612,-0.4496,-0.4318,-0.43,-0.4539,-0.4541,-0.4543,0,-0.4082,-0.4103,-0.4082,-0.4097,-0.4165,-0.4153,-0.418,-0.4222,-0.4231,-0.4252,-0.4258,-0.4278,-0.4288,-0.4301,-0.4363,-0.4409,-0.4338,-0.4413,-0.4361,-0.4359,-0.434,-0.434,-0.4156,-0.4346,-0.4347,-0.4347,-0.4347,0,-0.3949,-0.3921,-0.4018,-0.4004,-0.3975,-0.4052,-0.4021,-0.4057,-0.4093,-0.4088,-0.4166,-0.4158,-0.4242,-0.4244,-0.4292,-0.4269,-0.4274,-0.4296,-0.4309,-0.4288,-0.4285,-0.429,-0.4299,-0.4343,-0.4344,-0.4345,-0.4345,0,-0.3782,-0.3846,-0.3829,-0.3894,-0.391,-0.3885,-0.3941,-0.3931,-0.3976,-0.3967,-0.397,-0.404,-0.4046,-0.411,-0.413,-0.4163,-0.4119,-0.4148,-0.4106,-0.4114,-0.4058,-0.4061,-0.3869,-0.3847,-0.4053,-0.4051,-0.4049,0,-0.3693,-0.3673,-0.3737,-0.3739,-0.3763,-0.3765,-0.3774,-0.3849,-0.3855,-0.3897,-0.3881,-0.3893,-0.3906,-0.3911,-0.3963,-0.3978,-0.4006,-0.3938,-0.4008,-0.3987,-0.4002,-0.4001,-0.3998,-0.3921,-0.3919,-0.3917,-0.3915,0,-0.3525,-0.3557,-0.3568,-0.3589,-0.3598,-0.3618,-0.3643,-0.364,-0.3722,-0.3725,-0.3732,-0.3742,-0.3762,-0.3772,-0.3797,-0.3824,-0.3882,-0.3893,-0.3881,-0.3858,-0.3834,-0.3844,-0.4062,-0.3896,-0.3898,-0.39,-0.3901,-0.3901,-0.3393,-0.3379,-0.3421,-0.343,-0.3456,-0.3477,-0.347,-0.3515,-0.3522,-0.3544,-0.3588,-0.3588,-0.3625,-0.3664,-0.3686,-0.3686,-0.3721,-0.3705,-0.37,-0.3694,-0.3682,-0.3835,-0.3691,-0.3692,-0.3692,-0.3693,-0.3693,0,-0.3228,-0.3259,-0.3266,-0.3299,-0.3305,-0.3361,-0.3391,-0.3392,-0.3391,-0.3422,-0.3433,-0.344,-0.345,-0.3503,-0.3518,-0.3508,-0.3535,-0.3509,-0.3509,-0.3514,-0.3651,-0.3658,-0.3487,-0.3487,-0.3487,-0.3487,-0.3487,-0.3487,-0.3142,-0.3121,-0.3158,-0.315,-0.3182,-0.3182,-0.3194,-0.3213,-0.3238,-0.3242,-0.3251,-0.3286,-0.3325,-0.3344,-0.3355,-0.337,-0.3371,-0.3336,-0.3359,-0.3485,-0.3505,-0.3524,-0.3531,-0.3336,-0.3336,-0.3223,-0.3222,-0.3221]},{"header":{"parameterUnit":"m.s-1","parameterCategory":1,"la1":30.2991,"la2":30.254,"lo1":-89.0895,"lo2":-89.0444,"dy":0.0017,"dx":0.0017,"nx":28,"ny":28,"refTime":"2023-10-19T09:00:00:Z","depth":0,"parameterNumber":3,"parameterNumberName":"V-component_of_WINDS"},"data":[0,0,0,0,0,0,0,0,0,0,0,0,0,0,0,0,0,0,0,0,0,0,0,0,0,0,0,0,0,0,0,0,0,0,0,0,0,0,0,0,0,0,0,0,0,0,0,0,0,0,0,0,0,0,0,0,0,0,-0.3165,-0.3164,0,-0.3014,-0.3012,-0.301,-0.2997,-0.2999,-0.3,-0.3002,-0.2852,-0.2846,-0.2841,0,0,0,0,0,0,0,0,0,0,0,0,0,-0.3448,-0.3442,-0.3166,-0.3164,-0.3162,-0.3014,-0.3012,-0.301,-0.2997,-0.2999,-0.3001,-0.3003,-0.2853,-0.2847,-0.284,0,0,0,0,0,0,0,0,0,0,0,0,0,-0.3314,-0.3441,-0.3166,-0.3137,-0.3133,-0.3015,-0.3012,-0.3009,-0.2997,-0.2999,-0.3001,-0.3004,-0.2856,-0.2848,-0.2839,-0.274,0,0,-0.2814,-0.2811,0,0,0,0,0,0,0,0,-0.3321,-0.3303,-0.3143,-0.3139,-0.3134,-0.3027,-0.3056,-0.2919,-0.2996,-0.3049,-0.3002,-0.3005,-0.2908,-0.2896,-0.2862,-0.2733,-0.2727,-0.2813,-0.2808,-0.2805,-0.2803,0,0,0,0,0,0,0,-0.3331,-0.331,-0.3106,-0.3141,-0.3136,-0.3133,-0.3117,-0.303,-0.2967,-0.3044,-0.3043,-0.3025,-0.2906,-0.287,-0.2859,-0.2725,-0.2814,-0.2806,-0.2801,-0.2798,-0.2505,-0.2503,0,0,0,0,0,0,-0.3345,-0.3318,-0.3111,-0.3101,-0.3235,-0.3126,-0.3108,-0.3059,-0.2968,-0.2956,-0.3023,-0.3025,-0.2883,-0.2868,-0.2853,-0.2729,-0.2805,-0.2797,-0.2793,-0.2508,-0.2505,-0.2502,0,0,0,0,0,0,-0.3351,-0.3326,-0.3117,-0.3209,-0.3182,-0.3119,-0.3064,-0.3055,-0.3018,-0.2952,-0.2941,-0.2997,-0.2884,-0.2865,-0.2768,-0.2724,-0.2794,-0.2786,-0.2511,-0.2507,-0.2503,-0.2481,0,0,0,0,0,0,-0.3359,-0.3329,-0.3289,-0.3208,-0.3177,-0.3032,-0.3061,-0.305,-0.3004,-0.3005,-0.2925,-0.2914,-0.2885,-0.278,-0.2759,-0.2714,-0.278,-0.2515,-0.2509,-0.2504,-0.2486,-0.2477,-0.247,0,0,0,0,0,-0.3369,-0.3291,-0.3287,-0.3262,-0.3126,-0.303,-0.3012,-0.2979,-0.3,-0.296,-0.2918,-0.2916,-0.2733,-0.277,-0.2747,-0.2698,-0.2518,-0.2511,-0.2505,-0.2489,-0.2479,-0.247,0,0,0,0,0,0,-0.337,-0.3279,-0.3275,-0.3167,-0.3106,-0.3027,-0.2976,-0.2969,-0.2901,-0.2905,-0.2869,-0.2851,-0.2754,-0.2717,-0.2761,-0.2597,-0.2628,-0.2616,-0.2624,-0.2613,-0.2605,-0.2615,-0.2773,0,0,0,0,0,-0.3358,-0.3285,-0.3211,-0.3123,-0.3093,-0.304,-0.2997,-0.2976,-0.2912,-0.2886,-0.2836,-0.2775,-0.2703,-0.2657,-0.2587,-0.2481,-0.2463,-0.2437,-0.2428,-0.2422,-0.2412,-0.2352,-0.2338,-0.2481,-0.2481,-0.2481,0,0,-0.3331,-0.3273,-0.323,-0.3122,-0.3072,-0.2998,-0.3018,-0.294,-0.2885,-0.2875,-0.2778,-0.274,-0.267,-0.2567,-0.2519,-0.2533,-0.2369,-0.2414,-0.2409,-0.2402,-0.2344,-0.233,-0.2318,-0.2476,-0.2477,-0.2478,0,0,-0.3245,-0.3195,-0.3115,-0.3064,-0.2987,-0.2953,-0.2934,-0.2856,-0.2829,-0.2732,-0.2722,-0.2658,-0.2535,-0.2485,-0.2443,-0.2338,-0.2334,-0.2317,-0.2273,-0.2215,-0.2204,-0.2194,-0.2154,-0.214,-0.2307,-0.2307,-0.2307,0,-0.3222,-0.311,-0.3075,-0.2996,-0.2949,-0.2935,-0.2854,-0.2807,-0.2713,-0.2681,-0.2697,-0.2542,-0.2494,-0.2378,-0.2352,-0.232,-0.2297,-0.2324,-0.2208,-0.2197,-0.2187,-0.2149,-0.2135,-0.2306,-0.2306,-0.2306,-0.2306,0,-0.3084,-0.3007,-0.2952,-0.2858,-0.2805,-0.2726,-0.268,-0.2631,-0.2616,-0.258,-0.2481,-0.2423,-0.234,-0.2312,-0.2297,-0.2194,-0.2205,-0.2215,-0.2245,-0.2172,-0.2136,-0.2121,-0.2303,-0.2304,-0.2304,-0.2305,0,0,-0.2993,-0.2881,-0.2861,-0.2818,-0.2732,-0.2672,-0.2593,-0.251,-0.2468,-0.2404,-0.2336,-0.2233,-0.2241,-0.2194,-0.2174,-0.2123,-0.2041,-0.2139,-0.2137,-0.2121,-0.1922,-0.1912,-0.1896,-0.2039,-0.2036,-0.2034,-0.1927,0,-0.2895,-0.275,-0.2717,-0.2594,-0.2521,-0.2507,-0.2437,-0.2378,-0.2343,-0.2277,-0.2239,-0.2165,-0.2183,-0.2154,-0.2104,-0.2061,-0.2,-0.2069,-0.1975,-0.1972,-0.199,-0.1877,-0.1867,-0.1769,-0.1913,-0.191,-0.1908,0,-0.2761,-0.2691,-0.2559,-0.2482,-0.245,-0.2388,-0.2309,-0.2247,-0.218,-0.2157,-0.2104,-0.2089,-0.2007,-0.2043,-0.1929,-0.1976,-0.1937,-0.191,-0.1906,-0.1893,-0.1934,-0.1859,-0.1737,-0.1721,-0.1886,-0.1888,-0.1889,0,-0.2704,-0.2578,-0.2482,-0.2446,-0.2354,-0.231,-0.227,-0.2206,-0.2158,-0.209,-0.2058,-0.1983,-0.1941,-0.1884,-0.1849,-0.1879,-0.1737,-0.1771,-0.1716,-0.1717,-0.1685,-0.1687,-0.1552,-0.1664,-0.1664,-0.1665,-0.1665,0,-0.2597,-0.2516,-0.2454,-0.2395,-0.2305,-0.2269,-0.218,-0.2141,-0.2083,-0.2017,-0.2002,-0.1941,-0.19,-0.1833,-0.1806,-0.1715,-0.1697,-0.1677,-0.167,-0.1676,-0.1678,-0.1648,-0.1652,-0.1661,-0.1661,-0.1662,-0.1663,0,-0.2516,-0.2472,-0.2366,-0.2288,-0.2266,-0.2203,-0.2136,-0.2079,-0.2044,-0.196,-0.1938,-0.1883,-0.1803,-0.1764,-0.1666,-0.1648,-0.1544,-0.1543,-0.1565,-0.1562,-0.1509,-0.1513,-0.1347,-0.1322,-0.1453,-0.1452,-0.1451,0,-0.2449,-0.2386,-0.23,-0.2254,-0.2212,-0.2138,-0.2088,-0.2051,-0.2001,-0.1919,-0.1871,-0.1791,-0.1724,-0.1598,-0.155,-0.1475,-0.147,-0.1417,-0.1459,-0.1466,-0.1466,-0.1469,-0.1462,-0.1409,-0.1407,-0.1406,-0.1406,0,-0.2334,-0.2315,-0.2243,-0.2163,-0.2104,-0.204,-0.1977,-0.194,-0.1893,-0.1837,-0.1754,-0.1702,-0.1601,-0.152,-0.1442,-0.1403,-0.1395,-0.1393,-0.1376,-0.138,-0.1395,-0.1384,-0.1542,-0.1397,-0.1397,-0.1398,-0.1399,-0.1399,-0.2256,-0.2199,-0.2129,-0.2049,-0.1997,-0.1939,-0.188,-0.1837,-0.1766,-0.1679,-0.1662,-0.1574,-0.1509,-0.1402,-0.136,-0.1292,-0.1304,-0.128,-0.1273,-0.1267,-0.1263,-0.1408,-0.1278,-0.1278,-0.1279,-0.1279,-0.1279,0,-0.2137,-0.2091,-0.2019,-0.1929,-0.1867,-0.1865,-0.1796,-0.1744,-0.1665,-0.1604,-0.1538,-0.1443,-0.1365,-0.1311,-0.1232,-0.1188,-0.1183,-0.1168,-0.117,-0.1161,-0.1258,-0.1279,-0.1174,-0.1174,-0.1174,-0.1174,-0.1174,-0.1174,-0.2068,-0.197,-0.1943,-0.182,-0.1775,-0.1687,-0.1647,-0.1593,-0.1543,-0.1437,-0.1371,-0.1336,-0.1278,-0.1195,-0.1123,-0.111,-0.1081,-0.1065,-0.1052,-0.1143,-0.1154,-0.1165,-0.1184,-0.106,-0.106,-0.0959,-0.0959,-0.0958]}]]